Other Public Products
Issued by NWS Grand Forks, ND

Home | Current Version | Previous Version | Graphics & Text | Print | Product List | Glossary On
Versions: 1 2 3 4 5 6 7 8 9 10 11 12 13 14 15 16 17 18 19 20 21 22 23 24 25 26 27 28 29 30 31 32 33 34 35 36 37 38 39 40 41 42 43 44 45 46 47 48 49 50
000
FPUS83 KFGF 220710
OPUFGF
PRAIRIE TO PINES WEATHER ROUNDUP
NATIONAL WEATHER SERVICE EASTERN NORTH DAKOTA/GRAND FORKS ND
100 AM CST SUN JAN 22 2017

 **SATELLITE DATA USED TO AUGMENT SKY COVER AT AUTOMATED STATIONS**
 *****  WEATHER ACROSS EASTERN NORTH DAKOTA  *****

CITY           SKY/WX    TMP DP  RH WIND       PRES   REMARKS
GRAND FORKS    FOG       34  32  92 SW3       29.60R VSB 1/2
GRAND FORKS AF CLOUDY    33  33  99 CALM      29.60S FOG
GRAND CITY NWS NOT AVBL
BUXTON         NOT AVBL
DEVILS LAKE    CLOUDY    31  30  96 W10       29.59R FOG     WCI  22
FARGO          FOG       36  34  92 CALM      29.59R VSB 1/4
WAHPETON ARPT  CLOUDY    32  32 100 CALM      29.59S VSB 1/2
$$

 *****  WEATHER ACROSS CENTRAL AND WESTERN NORTH DAKOTA  *****

CITY           SKY/WX    TMP DP  RH WIND       PRES   REMARKS
JAMESTOWN      CLOUDY    31  30  96 W7        29.59R WCI  24
BISMARCK       CLOUDY    17  16  95 W3        29.65R
MINOT          CLOUDY    31  29  92 W9        29.58R FOG     WCI  23
MINOT AFB      CLOUDY    30  28  93 W12       29.57R FOG     WCI  21
GARRISON         N/A     28  26  92 W9        29.60R WCI  19
WILLISTON      CLOUDY    30  28  92 W9        29.63R WCI  22
DICKINSON      FAIR      17  14  88 W12       29.60R WCI   4
HETTINGER      FAIR      20  16  84 NW10      29.63R WCI   9
$$

 *****  OTHER OBSERVATIONS NORTHEAST NORTH DAKOTA  *****

CITY           SKY/WX    TMP DP  RH WIND       PRES   REMARKS
WALHALLA       NOT AVBL
LANGDON        NOT AVBL
CAVALIER       FOG       32  32 100 S3        29.60R VSB 1/4
GRAFTON        FOG       32  32 100 S3        29.62R VSB 1/4
CANDO          NOT AVBL
FORT TOTTEN      N/A     30  30 100 W3        29.95S
ROLLA            N/A    N/A N/A N/A MISG        N/A
RUGBY            N/A     27  27 100 SW8       29.58R FOG     WCI  18
 ***** THE ABOVE OBSERVATIONS ARE NON NWS ARE NOT QUALITY
        CONTROLLED AND MAY MIS-REPORT RAIN FOR SNOW...
$$

 *****  OTHER OBSERVATIONS SOUTHEAST NORTH DAKOTA *****

CITY           SKY/WX    TMP DP  RH WIND       PRES   REMARKS
COOPERSTOWN    CLOUDY    32  32 100 W7        29.59R FOG
VALLEY CITY    CLOUDY    32  32 100 NW8       29.61R WCI  25
OAKES          NOT AVBL
GWINNER        CLOUDY    34  34 100 NW8       29.60R
SHEYENNE NWR     N/A     33  33 100 NW3       29.95S
BUFFALO        NOT AVBL
WYNDMERE       NOT AVBL
 ***** THE ABOVE OBSERVATIONS ARE NON NWS ARE NOT QUALITY
       CONTROLLED AND MAY MIS-REPORT RAIN FOR SNOW...
$$

  *****  WEATHER ACROSS NORTHERN MINNESOTA  *****

CITY           SKY/WX    TMP DP  RH WIND       PRES   REMARKS
FLAG ISLAND    FOG       34  34 100 CALM      29.60S VSB 1/2
WARROAD        FOG       34  28  80 CALM      29.60S VSB 3/4
ROSEAU         HAZE      34  28  80 CALM      29.59S VSB 1/4
HALLOCK        DRIZZLE   34  34 100 CALM      29.60R
THF RVR FALLS  CLOUDY    33  32  96 SE3       29.60  FOG
HALSTAD        NOT AVBL
FOSSTON        FOG       32  32 100 CALM      29.60R VSB 3/4
BAUDETTE       FOG       33  33 100 CALM      29.59R VSB 1/4
WASKISH        FOG       34  34 100 CALM      29.59R VSB 1/2
CROOKSTON      MIX PCPN  34  34 100 CALM      29.61R VSB 1/2
$$
  *****  WEATHER ACROSS CENTRAL AND WEST MINNESOTA  *****

CITY           SKY/WX    TMP DP  RH WIND       PRES   REMARKS
BEMIDJI        CLOUDY    33  33 100 CALM      29.57S FOG
PARK RAPIDS    FOG       35  32  88 CALM      29.57R VSB 3/4
WADENA         FOG       32  32 100 CALM      29.57S VSB 1/2
DETROIT LAKES  FOG       34  34 100 CALM      29.59S VSB 1/2
MOORHEAD       FOG       34  34 100 CALM      29.61R VSB 1/4
FERGUS FALLS   FOG       34  34 100 CALM      29.63R VSB 1/2
ELBOW LAKE     LGT SNOW  32  32 100 CALM      29.59R VSB 3/4
MORRIS MN      FOG       34  34 100 NW3       29.57R VSB 1/2
STAPLES        FOG       32  32 100 CALM      29.58R VSB 1/2
WHEATON        FOG       39  39 100 CALM      29.61R VSB 1/2
$$
  *****  WEATHER ELSEWHERE ACROSS MINNESOTA  *****

CITY           SKY/WX    TMP DP  RH WIND       PRES   REMARKS
DULUTH         CLOUDY    35  34  96 N5        29.54R
INTRNTL FALLS  FOG       34  33  96 E3        29.59R VSB 1/2
ELY            CLOUDY    34  34 100 NE3       29.56R FOG
CLOQUET        CLOUDY    34  34 100 CALM      29.55S FOG
BRAINERD       FOG       33  33 100 CALM      29.57S VSB 1/4
HIBBING        CLOUDY    32  32 100 NW5       29.56S FOG
ALEXANDRIA     FOG       33  33 100 N5        29.57S VSB 1/2
SAINT CLOUD    FOG       34  34 100 CALM      29.56S VSB 3/4
MINNEAPOLIS    CLOUDY    36  35  96 NW6       29.55R FOG
$$

  *****  WEATHER ACROSS SOUTH DAKOTA  *****

CITY           SKY/WX    TMP DP  RH WIND       PRES   REMARKS
SIOUX FALLS    CLOUDY    32  30  92 NW6       29.60R
BROOKINGS      CLOUDY    31  30  96 NW7       29.58R WCI  24
WATERTOWN      CLOUDY    31  29  92 NW7       29.58R WCI  24
HURON          CLOUDY    31  29  92 NW7       29.63R WCI  24
SISSETON         N/A     33  33 100 NW3       29.58R
ABERDEEN       CLOUDY    32  27  81 NW7       29.62R
MITCHELL       CLOUDY    32  29  88 NW13      29.64R WCI  22
PIERRE         FAIR      21  20  96 W5        29.64R WCI  15
MOBRIDGE       FAIR      18  13  80 NW6       29.61S WCI  10
RAPID CITY     FAIR      27  21  78 NW9       29.67R WCI  18
$$

  *****  SOME WEATHER IN NEARBY STATES *****

CITY           SKY/WX    TMP DP  RH WIND       PRES   REMARKS
GLASGOW MT     CLOUDY    23  21  92 W9        29.68R FOG     WCI  13
GREAT FALLS MT CLOUDY    27  21  78 SW6       29.71R WCI  20
CHEYENNE WY    MOCLDY    29  19  66 NW7       29.68R WCI  22
SCOTTSBLUFF NE CLOUDY    29  25  85 NW6       29.69R WCI  23
OMAHA NE       MOCLDY    32  29  88 N9        29.59R WCI  24
DES MOINES IA  FOG       30  29  96 CALM      29.56S VSB 1/4
DAVENPORT IA   FAIR      36  35  96 CALM      29.58F
CHICAGO IL     CLOUDY    42  41  96 NW6       29.58F FOG
EAU CLAIRE WI  LGT RAIN  34  32  92 S3        29.53S VSB 1/2
LA CROSSE WI   CLOUDY    40  36  86 E5        29.55S FOG
$$

  *****  SOME NATIONAL WEATHER *****

CITY           SKY/WX    TMP DP  RH WIND       PRES   REMARKS
LA GUARDIA NY  FOG       47  45  93 S5        29.75F VSB 1
RALEIGH NC     FOG       54  53  97 N3        29.65R VSB 1/8
ATLANTA GA     LGT RAIN  58  57  97 SE7       29.55F
NEW ORLEANS LA FAIR      70  68  93 SW10      29.51R
OKLAHOMA CITY  MOCLDY    46  41  82 NW8       29.34S
ALBUQUERQUE NM CLOUDY    39  21  48 NW7G16    29.91R
SALT LAKE CITY MOCLDY    31  27  85 SE9       29.95R WCI  23
LOS ANGELES CA MOCLDY    55  48  77 SE7       30.12R
BOISE ID       MOCLDY    37  30  75 SE13      29.81R
SEATTLE WA     CLOUDY    44  42  93 S6        29.60R
$$

*** WEATHER ACROSS MANITOBA...SASKATCHEWAN AND ONTARIO ***
                ***ONTARIO***

CITY           SKY/WX    TMP DP  RH WIND       PRES   REMARKS
GERALDTON      FRZ DRZL  32  30  93 E9        29.66R FOG     WCI  24
THUNDER BAY    FLURRIES  34  34 100 NE6       29.59S
SIOUX LOOKOUT  CLOUDY    34  32  93 E5        29.62R FOG
TORONTO        FOG       39  37  93 E3        29.69S VSB 1/4
BIG TROUT LK   CLOUDY    23  23 100 E7        29.79R WCI  15
PICKLE LAKE    NOT AVBL
DRYDEN         FOG       34  34 100 NE5       29.60S VSB 1/4
KENORA         FOG       34  34 100 NE2       29.60S VSB 1/4
$$
                *** MANITOBA***

CITY           SKY/WX    TMP DP  RH WIND       PRES   REMARKS
BRANDON        FOG       32  32 100 E2        29.56R VSB 3/8
DAUPHIN        LGT RAIN  32  32 100 SE2       29.57S FOG
ISLAND LAKE    FLURRIES  30  30 100 E3        29.68R
PILOT MOUND      N/A     32  32 100 SW5         N/A
THE PAS        FOG       32  32 100 E3        29.62R VSB 1/2
THOMPSON       LGT SNOW  30  28  93 NE5       29.70R FOG
WINNIPEG       CLOUDY    34  34 100 SE7       29.60S
LYNN LAKE      LGT SNOW  28  28 100 NE7       29.70R WCI  21
CHURCHILL      FLURRIES  18  16  93 SE12      29.88S WCI   5
GILLAM         CLOUDY    27  25  93 E5        29.77R WCI  21
$$
                ***SASKATCHEWAN***

CITY           SKY/WX    TMP DP  RH WIND       PRES   REMARKS
ESTEVAN        CLOUDY    27  25  93 W12       29.59R WCI  16
KINDERSLEY     FLURRIES  25  25 100 N8        29.69R WCI  16
LLOYDMINSTER   CLOUDY    23  21  93 NW10G20   29.76R WCI  12
PRINCE ALBERT  FLURRIES  27  23  86 N9        29.63R WCI  17
REGINA         MOCLDY    25  21  86 NW9       29.60R WCI  15
YORKTON        LGT SNOW  28  28 100 SW5       29.55R WCC1F1C2F2C3F3C4F4C5F5C6F6C7F7C8F8C9F9CaFaCbFbCcFcCdFdCe!



USA.gov is the U.S. government's official web portal to all federal, state and local government web resources and services.